This is the latest recevied weather packets stored in our database for station/object OK4PZ-5. If no packets are shown the sender has not sent any weather packets the latest 10 day(s).
| Time | Temp. | Humidity | Pressure | Rain* | Wind** | Luminosity | Snow |
|---|---|---|---|---|---|---|---|
| 1777248003 | 1.11° C | 86% | 1025 hPa | 0 mm | - | - | - |
| 1777247102 | 1.11° C | 85% | 1025 hPa | 0 mm | - | - | - |
| 1777246202 | 1.11° C | 86% | 1025 hPa | 0 mm | - | - | - |
| 1777245303 | 1.67° C | 86% | 1025 hPa | 0 mm | - | - | - |
| 1777244403 | 1.67° C | 84% | 1025 hPa | 0 mm | - | - | - |
| 1777243502 | 2.22° C | 82% | 1025 hPa | 0 mm | - | - | - |
| 1777242602 | 2.22° C | 82% | 1025 hPa | 0 mm | - | - | - |
| 1777241702 | 2.22° C | 81% | 1025 hPa | 0 mm | - | - | - |
| 1777240802 | 3.33° C | 79% | 1025 hPa | 0 mm | - | - | - |
| 1777239903 | 3.33° C | 78% | 1025 hPa | 0 mm | - | - | - |
| 1777239002 | 3.89° C | 78% | 1025 hPa | 0 mm | - | - | - |
| 1777238102 | 4.44° C | 76% | 1025 hPa | 0 mm | - | - | - |
| 1777237203 | 4.44° C | 74% | 1025 hPa | 0 mm | - | - | - |
| 1777236302 | 5° C | 72% | 1025 hPa | 0 mm | - | - | - |
| 1777235402 | 5° C | 73% | 1025 hPa | 0 mm | - | - | - |
| 1777234502 | 5.56° C | 71% | 1025 hPa | 0 mm | - | - | - |
| 1777233603 | 6.11° C | 69% | 1025 hPa | 0 mm | - | - | - |
| 1777232702 | 6.11° C | 64% | 1025 hPa | 0 mm | - | - | - |
| 1777231804 | 6.67° C | 64% | 1025 hPa | 0 mm | - | - | - |
| 1777230902 | 7.22° C | 62% | 1025 hPa | 0 mm | - | - | - |
| 1777230002 | 7.78° C | 56% | 1025 hPa | 0 mm | - | - | - |
| 1777229102 | 8.33° C | 52% | 1025 hPa | 0 mm | - | - | - |
| 1777228203 | 9.44° C | 48% | 1025 hPa | 0 mm | - | - | - |
| 1777227303 | 9.44° C | 47% | 1024 hPa | 0 mm | - | - | - |
| 1777226402 | 10° C | 45% | 1024 hPa | 0 mm | - | - | - |
* Rain latest hour (hover to see other rain measurements)
** Current wind speed in m/s (hover to see current wind gust speed)